Weather in Matosinhos

Portugal     41°10′41″N   8°40′52″W
temp.,
°C
wind,
m/s
gust,
m/s
humid.,
%
clouds,
%
prec.,
mm/h
press.,
hPa
HPBL,
m
18 may, tue
tue1801:00+15s457499 0.0 1021246
04:00+15sse687456 0.0 1020310
07:00+15s71077100 0.0 1020372
10:00+15ssw81191100 1.2 1021477
13:00+17wnw558582 1.4 1022450
16:00+15nnw998270 0.0 1023465
19:00+15nnw1012795 0.0 1024475
22:00+15nnw9127989 0.0 1025502
19 may, wed
wed1901:00+14n8108291 0.0 1025429
04:00+13nne4683100 0.0 1025253
07:00+12nne358429 0.0 1025195
10:00+15n456483 0.0 1026351
13:00+16nnw876498 0.0 1025457
16:00+16nnw101169100 0.0 1024355
19:00+16nnw101275100 0.0 1024297
22:00+15nnw7108077 0.0 1024234
20 may, thu
thu2001:00+15nne337364 0.0 102388
04:00+15nne336721 0.0 102393
07:00+15nne3361100 0.0 102396
10:00+18ne2257100 0.0 1022117
13:00+17nw7672100 0.0 1022287
16:00+17nnw7866100 0.0 1021218
19:00+16nnw81270100 0.0 1021278
22:00+16nnw8127544 0.0 1022252
21 may, fri
fri2101:00+16n5876100 0.0 1020204
04:00+15nnw4775100 0.0 1019212
07:00+15n3679100 0.0 1020226
10:00+16nnw35820 0.0 1020299
13:00+16wnw458839 0.0 1020408
16:00+16nnw8884100 0.1 1020548
19:00+15nnw910750 0.1 1020644
22:00+15nnw810751 0.0 1021752
22 may, sat
sat2201:00+14n677712 0.0 1021707
04:00+13n4679100 0.0 1020428
07:00+12nne3482100 0.0 1020239
10:00+13n2374100 0.0 1020365
13:00+14nw5668100 0.0 1020616
16:00+15nw5665100 0.0 1020627
19:00+15nw4466100 0.0 1020780
22:00+14nw5673100 0.1 1020623